GW3780 Weather Reports


Display with metric or nautical units.
time (UTC)temp
F
wind
direction
speed
MPH
gust
MPH
rain 1hr
in
rain 24hr
in
rain mn
in
humidity
%
barometer
mb
20260510095415 54 304 0.0 2.0 0.00 0.00 0.00 99 1013.6
20260510094914 55 22 0.0 1.0 0.00 0.00 0.00 99 1013.3
20260510094409 55 345 0.0 2.0 0.00 0.00 0.00 99 1013.4
20260510093905 55 52 0.0 1.0 0.00 0.00 0.00 99 1013.4
20260510093401 55 330 1.0 2.0 0.00 0.00 0.00 99 1013.4
20260510092858 55 172 2.0 2.0 0.00 0.00 0.00 99 1013.3
20260510092355 55 119 1.0 2.0 0.00 0.00 0.00 99 1013.3
20260510091849 55 215 0.0 2.0 0.00 0.00 0.00 98 1013.3
20260510091347 55 24 1.0 2.0 0.00 0.00 0.00 98 1013.1
20260510090843 56 16 0.0 2.0 0.00 0.00 0.00 98 1013.0
20260510090340 56 352 0.0 1.0 0.00 0.00 0.00 98 1013.1
20260510085835 56 309 0.0 1.0 0.00 0.00 0.00 98 1012.7
20260510085330 56 348 1.0 2.0 0.00 0.00 0.00 98 1012.6
20260510084826 56 3 0.0 1.0 0.00 0.00 0.00 97 1013.0
20260510084324 57 74 0.0 1.0 0.00 0.00 0.00 97 1012.6
20260510083820 57 84 0.0 1.0 0.00 0.00 0.00 97 1012.8
20260510083317 57 296 0.0 2.0 0.00 0.00 0.00 96 1012.9
20260510082812 57 307 0.0 0.0 0.00 0.00 0.00 96 1012.5
20260510082310 57 70 0.0 2.0 0.00 0.00 0.00 96 1012.7
20260510081809 58 219 0.0 2.0 0.00 0.00 0.00 96 1012.6
20260510081305 58 93 0.0 2.0 0.00 0.00 0.00 96 1012.7
20260510080801 58 23 0.0 1.0 0.00 0.00 0.00 96 1012.6
20260510080255 58 322 0.0 2.0 0.00 0.00 0.00 96 1012.6
20260510075753 59 224 0.0 0.0 0.00 0.00 0.00 95 1012.6
20260510075250 59 336 0.0 1.0 0.00 0.00 0.00 95 1012.6
20260510074747 59 156 1.0 1.0 0.00 0.00 0.00 95 1012.4
20260510074244 59 5 2.0 2.0 0.00 0.00 0.00 94 1012.5
20260510073740 59 320 2.0 2.0 0.00 0.00 0.00 94 1012.5
20260510073236 59 14 1.0 2.0 0.00 0.00 0.00 94 1012.8
20260510072732 59 99 0.0 2.0 0.00 0.00 0.00 93 1012.6
20260510072229 59 89 0.0 1.0 0.00 0.00 0.00 93 1012.5
20260510071725 60 63 0.0 2.0 0.00 0.00 0.00 92 1012.5
20260510071222 60 21 1.0 2.0 0.00 0.00 0.00 92 1012.4
20260510070720 61 309 0.0 1.0 0.00 0.00 0.00 92 1012.4
20260510070218 61 311 0.0 1.0 0.00 0.00 0.00 91 1012.6
20260510065712 61 253 1.0 1.0 0.00 0.00 0.00 91 1012.5
20260510065208 61 55 1.0 1.0 0.00 0.00 0.00 91 1012.6
20260510064705 61 229 0.0 1.0 0.00 0.00 0.00 91 1012.7
20260510064203 61 37 1.0 2.0 0.00 0.00 0.00 90 1012.6
20260510063700 61 269 0.0 1.0 0.00 0.00 0.00 90 1012.5
20260510063155 61 307 0.0 1.0 0.00 0.00 0.00 89 1012.5
20260510062652 62 274 1.0 2.0 0.00 0.00 0.00 89 1012.5
20260510062148 62 212 0.0 1.0 0.00 0.00 0.00 89 1012.7
20260510061643 62 235 0.0 3.0 0.00 0.00 0.00 88 1012.5
20260510061141 62 162 0.0 2.0 0.00 0.00 0.00 88 1012.4
20260510060637 62 265 0.0 2.0 0.00 0.00 0.00 87 1012.5
20260510060134 63 304 0.0 3.0 0.00 0.00 0.00 87 1012.5
20260510055630 63 228 1.0 2.0 0.00 0.00 0.00 86 1012.5
20260510055128 63 310 0.0 2.0 0.00 0.00 0.00 86 1012.5
20260510054624 63 293 0.0 2.0 0.00 0.00 0.00 85 1012.7
20260510054119 64 223 1.0 2.0 0.00 0.00 0.00 85 1012.5
20260510053619 64 196 2.0 2.0 0.00 0.00 0.00 84 1012.4
20260510053115 64 252 1.0 2.0 0.00 0.00 0.00 84 1012.4
20260510052611 64 215 1.0 2.0 0.00 0.00 0.00 83 1012.4
20260510052108 64 168 1.0 3.0 0.00 0.00 0.00 83 1012.6
20260510051603 65 163 0.0 3.0 0.00 0.00 0.00 82 1012.7
20260510051101 65 273 1.0 2.0 0.00 0.00 0.00 82 1012.5
20260510050558 65 269 0.0 2.0 0.00 0.00 0.00 82 1012.6
20260510050055 65 230 0.0 2.0 0.00 0.00 0.00 81 1012.4
20260510045552 65 252 0.0 2.0 0.00 0.00 0.00 81 1012.4
20260510045048 65 259 0.0 2.0 0.00 0.00 0.00 80 1012.6
20260510044545 65 235 0.0 2.0 0.00 0.00 0.00 80 1012.6
20260510044042 65 226 1.0 2.0 0.00 0.00 0.00 80 1012.3
20260510043537 66 184 1.0 2.0 0.00 0.00 0.00 79 1012.3
20260510043033 66 246 2.0 2.0 0.00 0.00 0.00 79 1012.4
20260510042527 66 248 1.0 4.0 0.00 0.00 0.00 79 1012.5
20260510042022 66 330 0.0 3.0 0.00 0.00 0.00 78 1012.4
20260510041520 66 222 0.0 2.0 0.00 0.00 0.00 78 1012.4
20260510041017 66 202 2.0 3.0 0.00 0.00 0.00 77 1012.5
20260510040514 66 267 1.0 4.0 0.00 0.00 0.00 77 1012.3
20260510040009 66 234 0.0 3.0 0.00 0.00 0.00 77 1012.5
20260510035506 66 246 1.0 4.0 0.00 0.00 0.00 76 1012.1
20260510035005 66 269 0.0 2.0 0.00 0.00 0.00 77 1012.3
20260510034504 66 222 0.0 1.0 0.00 0.00 0.00 77 1012.2
20260510034000 66 299 0.0 1.0 0.00 0.00 0.00 76 1012.1
20260510033456 66 310 0.0 1.0 0.00 0.00 0.00 76 1012.2
20260510032954 66 326 0.0 1.0 0.00 0.00 0.00 75 1012.1
20260510032451 66 237 0.0 2.0 0.00 0.00 0.00 75 1012.2
20260510031951 67 213 2.0 2.0 0.00 0.00 0.00 74 1012.1
20260510031447 66 230 0.0 2.0 0.00 0.00 0.00 74 1012.3
20260510030943 67 326 0.0 2.0 0.00 0.00 0.00 74 1012.0
20260510030438 67 322 0.0 0.0 0.00 0.00 0.00 73 1012.0
20260510025936 67 217 1.0 4.0 0.00 0.00 0.00 73 1012.2
20260510025433 67 315 0.0 2.0 0.00 0.00 0.00 73 1012.0
20260510024930 67 225 0.0 2.0 0.00 0.00 0.00 72 1012.0
20260510024427 67 166 0.0 1.0 0.00 0.00 0.00 72 1011.9
20260510023923 67 256 0.0 2.0 0.00 0.00 0.00 72 1011.8
20260510023419 67 225 1.0 2.0 0.00 0.00 0.00 72 1011.7
20260510022917 67 248 1.0 2.0 0.00 0.00 0.00 72 1011.8
20260510022415 67 221 0.0 2.0 0.00 0.00 0.00 71 1011.9
20260510021914 67 309 0.0 1.0 0.00 0.00 0.00 71 1011.6
20260510021413 67 32 0.0 3.0 0.00 0.00 0.00 70 1011.5
20260510020909 67 258 0.0 2.0 0.00 0.00 0.00 70 1011.7
20260510020404 67 316 1.0 2.0 0.00 0.00 0.00 70 1011.6
20260510015900 67 315 0.0 1.0 0.00 0.00 0.00 69 1011.5
20260510015356 67 304 0.0 2.0 0.00 0.00 0.00 69 1011.4
20260510014851 67 314 0.0 1.0 0.00 0.00 0.00 69 1011.2
20260510014349 67 322 0.0 1.0 0.00 0.00 0.00 68 1011.3
20260510013845 67 297 1.0 1.0 0.00 0.00 0.00 69 1011.1
20260510013340 67 301 0.0 2.0 0.00 0.00 0.00 68 1011.2
20260510012835 67 212 0.0 1.0 0.00 0.00 0.00 70 1011.1
20260510012330 66 319 0.0 1.0 0.00 0.00 0.00 70 1011.0
20260510011825 66 321 0.0 2.0 0.00 0.00 0.00 70 1010.9
20260510011321 66 310 0.0 1.0 0.00 0.00 0.00 69 1010.8
20260510010817 66 5 0.0 1.0 0.00 0.00 0.00 69 1011.0
20260510010315 67 332 0.0 1.0 0.00 0.00 0.00 68 1011.0
20260510005811 67 37 0.0 0.0 0.00 0.00 0.00 67 1010.9
20260510005307 67 333 0.0 0.0 0.00 0.00 0.00 69 1010.6
20260510004805 67 339 0.0 0.0 0.00 0.00 0.00 66 1010.6
20260510004303 68 332 0.0 1.0 0.00 0.00 0.00 66 1010.5
20260510003759 68 322 0.0 0.0 0.00 0.00 0.00 65 1010.6
20260510003257 68 322 0.0 0.0 0.00 0.00 0.00 64 1010.5
20260510002755 69 329 0.0 1.0 0.00 0.00 0.00 64 1010.5
20260510002253 69 35 0.0 0.0 0.00 0.00 0.00 62 1010.3
20260510001749 69 4 0.0 0.0 0.00 0.00 0.00 61 1010.3
20260510001248 70 323 0.0 1.0 0.00 0.00 0.00 61 1010.3
20260510000743 70 297 0.0 1.0 0.00 0.00 0.00 60 1010.3
20260510000241 71 322 0.0 2.0 0.00 0.00 0.00 58 1010.1
20260509235738 71 343 0.0 1.0 0.00 0.00 0.00 58 1010.1
20260509235234 72 333 0.0 1.0 0.00 0.00 0.00 55 1009.8
20260509234730 72 322 0.0 1.0 0.00 0.00 0.00 56 1009.8
20260509234227 73 321 0.0 1.0 0.00 0.00 0.00 54 1009.9
20260509233725 73 299 0.0 1.0 0.00 0.00 0.00 54 1010.1
20260509233223 73 329 1.0 1.0 0.00 0.00 0.00 53 1010.2
20260509232718 73 232 2.0 3.0 0.00 0.00 0.00 52 1010.0
20260509232216 74 275 0.0 2.0 0.00 0.00 0.00 52 1009.9
20260509231712 74 23 1.0 1.0 0.00 0.00 0.00 53 1010.0
20260509231209 74 256 0.0 3.0 0.00 0.00 0.00 52 1010.3
20260509230706 74 273 1.0 3.0 0.00 0.00 0.00 51 1010.1
20260509230157 74 219 3.0 3.0 0.00 0.00 0.00 51 1010.2
20260509225653 74 201 0.0 5.0 0.00 0.00 0.00 51 1010.0
20260509225149 74 283 0.0 2.0 0.00 0.00 0.00 51 1009.9
20260509224645 75 206 2.0 3.0 0.00 0.00 0.00 51 1009.9
20260509224142 75 80 2.0 2.0 0.00 0.00 0.00 51 1010.0
20260509223639 75 233 2.0 2.0 0.00 0.00 0.00 50 1010.0
20260509223136 75 227 1.0 3.0 0.00 0.00 0.00 50 1009.7
20260509222633 75 246 2.0 2.0 0.00 0.00 0.00 50 1009.9
20260509222128 75 56 0.0 5.0 0.00 0.00 0.00 50 1009.9
20260509221624 75 187 1.0 3.0 0.00 0.00 0.00 50 1010.1
20260509221120 74 241 1.0 3.0 0.00 0.00 0.00 51 1010.0
20260509220616 75 312 1.0 2.0 0.00 0.00 0.00 53 1009.9
20260509220113 75 306 0.0 3.0 0.00 0.00 0.00 52 1009.9
20260509215609 75 333 0.0 3.0 0.00 0.00 0.00 51 1009.9
20260509215106 76 211 0.0 2.0 0.00 0.00 0.00 49 1009.9
20260509214603 75 250 0.0 4.0 0.00 0.00 0.00 48 1009.8
20260509214100 75 223 2.0 3.0 0.00 0.00 0.00 49 1009.9
20260509213555 74 288 2.0 4.0 0.00 0.00 0.00 51 1010.0
20260509213052 74 263 0.0 3.0 0.00 0.00 0.00 50 1009.8
20260509212550 75 262 2.0 3.0 0.00 0.00 0.00 50 1009.7
20260509212046 75 144 2.0 4.0 0.00 0.00 0.00 51 1009.7
20260509211542 75 282 0.0 4.0 0.00 0.00 0.00 51 1009.6
20260509211039 75 325 1.0 2.0 0.00 0.00 0.00 53 1009.8
20260509210535 75 152 2.0 3.0 0.00 0.00 0.00 53 1009.7
20260509210031 75 216 1.0 3.0 0.00 0.00 0.00 52 1009.7
20260509205526 75 167 0.0 2.0 0.00 0.00 0.00 52 1009.8
20260509205022 75 113 0.0 3.0 0.00 0.00 0.00 52 1009.7
20260509204519 76 299 1.0 2.0 0.00 0.00 0.00 49 1009.4
20260509204015 76 267 1.0 4.0 0.00 0.00 0.00 50 1009.7
20260509203511 77 292 2.0 3.0 0.00 0.00 0.00 50 1009.4
20260509203009 76 297 2.0 6.0 0.00 0.00 0.00 51 1009.5
20260509202503 76 195 2.0 6.0 0.00 0.00 0.00 51 1009.3
20260509201959 75 296 4.0 5.0 0.00 0.00 0.00 51 1009.6
20260509201454 76 223 5.0 5.0 0.00 0.00 0.00 48 1009.4
20260509200952 76 203 2.0 6.0 0.00 0.00 0.00 49 1009.5
20260509200447 75 263 2.0 5.0 0.00 0.00 0.00 50 1009.8
20260509195943 75 279 2.0 4.0 0.00 0.00 0.00 51 1009.7
20260509195439 75 248 3.0 7.0 0.00 0.00 0.00 51 1010.0
20260509194938 76 288 3.0 5.0 0.00 0.00 0.00 50 1009.8
20260509194434 76 313 1.0 4.0 0.00 0.00 0.00 50 1010.0
20260509193931 77 168 3.0 4.0 0.00 0.00 0.00 49 1010.0
20260509193431 77 181 2.0 4.0 0.00 0.00 0.00 47 1010.0
20260509192927 77 246 3.0 3.0 0.00 0.00 0.00 48 1010.3
20260509192424 77 234 5.0 6.0 0.00 0.00 0.00 47 1010.2
20260509191919 76 227 2.0 3.0 0.00 0.00 0.00 48 1009.9
20260509191414 76 169 3.0 5.0 0.00 0.00 0.00 49 1010.1
20260509190911 77 150 2.0 4.0 0.00 0.00 0.00 48 1010.3
20260509190408 75 258 2.0 5.0 0.00 0.00 0.00 49 1010.5
20260509185906 77 254 2.0 2.0 0.00 0.00 0.00 49 1010.5
20260509185403 77 292 3.0 4.0 0.00 0.00 0.00 48 1010.5
20260509184859 77 209 2.0 3.0 0.00 0.00 0.00 49 1010.7
20260509184356 76 274 2.0 3.0 0.00 0.00 0.00 50 1010.7
20260509183854 78 236 0.0 2.0 0.00 0.00 0.00 49 1010.8
20260509183348 76 211 0.0 4.0 0.00 0.00 0.00 51 1011.0
20260509182844 74 248 2.0 4.0 0.00 0.00 0.00 52 1010.9
20260509182342 73 210 2.0 5.0 0.00 0.00 0.00 53 1011.3
20260509181839 73 345 1.0 5.0 0.00 0.00 0.00 53 1010.8
20260509181336 73 280 2.0 5.0 0.00 0.00 0.00 53 1011.0
20260509180833 74 278 1.0 5.0 0.00 0.00 0.00 52 1011.2
20260509180329 75 262 1.0 4.0 0.00 0.00 0.00 50 1011.2
20260509175826 75 266 2.0 6.0 0.00 0.00 0.00 49 1011.4
20260509175322 75 248 2.0 4.0 0.00 0.00 0.00 50 1011.2
20260509174818 74 246 2.0 7.0 0.00 0.00 0.00 51 1011.2
20260509174314 75 229 2.0 4.0 0.00 0.00 0.00 50 1011.5
20260509173810 72 135 0.0 6.0 0.00 0.00 0.00 54 1011.3
20260509173306 72 191 3.0 9.0 0.00 0.00 0.00 54 1011.6
20260509172802 72 321 0.0 4.0 0.00 0.00 0.00 54 1011.4
20260509172259 74 214 4.0 4.0 0.00 0.00 0.00 51 1011.5
20260509171754 73 179 2.0 6.0 0.00 0.00 0.00 53 1011.5
20260509171251 73 157 2.0 4.0 0.00 0.00 0.00 52 1011.5
20260509170747 73 216 2.0 6.0 0.00 0.00 0.00 53 1011.7
20260509170243 73 223 2.0 4.0 0.00 0.00 0.00 54 1011.7
20260509165742 71 283 2.0 5.0 0.00 0.00 0.00 57 1012.0
20260509165238 72 252 2.0 4.0 0.00 0.00 0.00 55 1012.0
20260509164734 71 130 1.0 2.0 0.00 0.00 0.00 55 1012.0
20260509164229 73 211 2.0 9.0 0.00 0.00 0.00 53 1012.0
20260509163727 72 186 2.0 4.0 0.00 0.00 0.00 54 1012.4
20260509163223 72 214 2.0 4.0 0.00 0.00 0.00 55 1012.2
20260509162721 71 187 0.0 6.0 0.00 0.00 0.00 55 1012.2
20260509162216 71 150 1.0 5.0 0.00 0.00 0.00 55 1012.1
20260509161712 69 266 1.0 4.0 0.00 0.00 0.00 55 1012.2
20260509161209 71 212 3.0 9.0 0.00 0.00 0.00 54 1012.2
20260509160704 71 246 2.0 6.0 0.00 0.00 0.00 55 1012.1
20260509160200 70 175 2.0 5.0 0.00 0.00 0.00 54 1012.5
20260509155655 70 155 4.0 5.0 0.00 0.00 0.00 54 1012.2
20260509155152 69 180 0.0 5.0 0.00 0.00 0.00 53 1012.4
20260509154648 69 180 6.0 6.0 0.00 0.00 0.00 53 1012.7
20260509154146 70 185 2.0 6.0 0.00 0.00 0.00 55 1012.4
20260509153642 70 215 2.0 6.0 0.00 0.00 0.00 56 1013.0
20260509153139 70 269 3.0 6.0 0.00 0.00 0.00 54 1012.8
20260509152634 69 295 0.0 4.0 0.00 0.00 0.00 57 1012.9
20260509152132 70 227 2.0 4.0 0.00 0.00 0.00 57 1012.7
20260509151628 69 173 0.0 6.0 0.00 0.00 0.00 58 1013.0
20260509151126 69 312 1.0 5.0 0.00 0.00 0.00 58 1013.0
20260509150624 70 201 2.0 4.0 0.00 0.00 0.00 60 1012.9
20260509150122 69 189 0.0 5.0 0.00 0.00 0.00 63 1012.9
20260509145617 68 241 2.0 3.0 0.00 0.00 0.00 65 1013.2
20260509145112 67 181 0.0 5.0 0.00 0.00 0.00 66 1013.2
20260509144610 66 222 2.0 4.0 0.00 0.00 0.00 66 1013.4
20260509144106 66 210 3.0 7.0 0.00 0.00 0.00 67 1013.4
20260509143603 66 282 1.0 3.0 0.00 0.00 0.00 68 1013.6
20260509143101 66 200 2.0 3.0 0.00 0.00 0.00 68 1013.7
20260509142556 65 257 2.0 5.0 0.00 0.00 0.00 69 1013.8
20260509142053 65 271 1.0 4.0 0.00 0.00 0.00 70 1013.9
20260509141549 65 184 2.0 4.0 0.00 0.00 0.00 70 1014.0
20260509141046 65 161 3.0 5.0 0.00 0.00 0.00 71 1014.0
20260509140543 64 316 2.0 6.0 0.00 0.00 0.00 71 1013.8
20260509140041 64 296 0.0 2.0 0.00 0.00 0.00 73 1013.7
20260509135537 64 166 0.0 2.0 0.00 0.00 0.00 72 1013.8
20260509135035 64 271 2.0 3.0 0.00 0.00 0.00 73 1013.7
20260509134532 63 289 2.0 4.0 0.00 0.00 0.00 73 1013.9
20260509134030 64 216 2.0 2.0 0.00 0.00 0.00 73 1013.9
20260509133526 63 244 2.0 3.0 0.00 0.00 0.00 74 1014.2
20260509133024 63 310 1.0 3.0 0.00 0.00 0.00 75 1014.1
20260509132522 63 194 1.0 4.0 0.00 0.00 0.00 75 1014.2
20260509132020 63 207 1.0 3.0 0.00 0.00 0.00 75 1014.3
20260509131516 62 180 5.0 5.0 0.00 0.00 0.00 75 1014.2
20260509131013 62 217 6.0 6.0 0.00 0.00 0.00 75 1014.1
20260509130508 62 195 1.0 5.0 0.00 0.00 0.00 75 1014.2
20260509130006 62 260 1.0 2.0 0.00 0.00 0.00 76 1014.3
20260509125502 61 269 0.0 3.0 0.00 0.00 0.00 77 1014.0
20260509124958 61 231 1.0 4.0 0.00 0.00 0.00 78 1014.2
20260509124455 61 186 2.0 6.0 0.00 0.00 0.00 78 1014.1
20260509123952 60 239 0.0 4.0 0.00 0.00 0.00 79 1014.1
20260509123450 60 217 2.0 5.0 0.00 0.00 0.00 79 1014.0
20260509122945 60 258 2.0 3.0 0.00 0.00 0.00 80 1014.1
20260509122443 59 264 1.0 2.0 0.00 0.00 0.00 81 1014.2
20260509121939 59 246 0.0 4.0 0.00 0.00 0.00 81 1014.3
20260509121436 59 246 0.0 4.0 0.00 0.00 0.00 82 1014.2
20260509120934 59 294 1.0 3.0 0.00 0.00 0.00 82 1014.3
20260509120432 58 290 0.0 3.0 0.00 0.00 0.00 82 1014.5
20260509115930 58 269 0.0 2.0 0.00 0.00 0.00 83 1014.5
20260509115427 58 233 4.0 4.0 0.00 0.00 0.00 83 1014.3
20260509114924 57 193 1.0 6.0 0.00 0.00 0.00 83 1014.3
20260509114423 57 173 2.0 6.0 0.00 0.00 0.00 83 1014.1
20260509113922 57 279 1.0 4.0 0.00 0.00 0.00 83 1014.2
20260509113419 57 254 2.0 2.0 0.00 0.00 0.00 83 1014.1
20260509112916 57 229 2.0 3.0 0.00 0.00 0.00 83 1014.0
20260509112413 57 151 0.0 3.0 0.00 0.00 0.00 83 1014.2
20260509111910 57 222 1.0 3.0 0.00 0.00 0.00 83 1013.9
20260509111406 56 276 0.0 6.0 0.00 0.00 0.00 85 1014.1
20260509110904 55 260 1.0 2.0 0.00 0.00 0.00 85 1013.9
20260509110400 55 157 0.0 2.0 0.00 0.00 0.00 86 1013.9
20260509105859 55 268 1.0 2.0 0.00 0.00 0.00 86 1014.0
20260509105356 54 209 0.0 2.0 0.00 0.00 0.00 86 1013.9
20260509104853 54 139 0.0 2.0 0.00 0.00 0.00 87 1014.2
20260509104349 54 252 2.0 4.0 0.00 0.00 0.00 87 1014.1
20260509103847 54 143 0.0 3.0 0.00 0.00 0.00 87 1013.9
20260509103344 53 224 0.0 1.0 0.00 0.00 0.00 87 1014.1
20260509102843 54 330 0.0 2.0 0.00 0.00 0.00 86 1014.0
20260509102340 54 178 0.0 3.0 0.00 0.00 0.00 86 1013.9
20260509101835 54 183 0.0 2.0 0.00 0.00 0.00 86 1013.7
20260509101332 54 250 0.0 2.0 0.00 0.00 0.00 85 1014.0
20260509100830 54 299 0.0 2.0 0.00 0.00 0.00 85 1013.8
20260509100327 54 250 0.0 2.0 0.00 0.00 0.00 84 1013.8
20260509095823 54 4 0.0 3.0 0.00 0.00 0.00 84 1013.8